321  
ASUS44 KEWX 291610  
RWRTX  
SOUTH TEXAS REGIONAL WEATHER ROUNDUP  
NATIONAL WEATHER SERVICE AUSTIN/SAN ANTONIO TX  
1100 AM CDT SAT AUG 29 2015  
 
NOTE: "FAIR" INDICATED FEW OR NO CLOUDS BELOW 12,000 FEET WITH NO  
SIGNIFICANT WEATHER AND/OR S TO VISIBILITY
.  
 
* - THESE STATIONS ARE NOT NWS OR FAA STATIONS...AND ARE NOT SUBJECT  
TO NWS AND FAA QUALITY CONTROL.
 
 
TXZ171-172-183>190-291700-  
TEXAS HILL COUNTRY AND EDWARDS PLATEAU  
 
CITY SKY/WX TMP DP RH WIND PRES REMARKS
 
JUNCTION MOSUNNY 80 60 50 CALM 30.11R  
*LLANO SUNNY 84 59 42 SW5 30.12R  
BURNET SUNNY 83 60 45 SW7 30.10S  
*HORSESHOE BAY SUNNY 85 63 47 S5 30.08S  
*KERRVILLE SUNNY 80 63 56 S8 30.11S  
*FREDERICKSBRG SUNNY 79 59 50 S8 30.11R  
*ROCKSPRINGS MOSUNNY 81 63 54 SE8 30.15R  
*BOERNE STAGE SUNNY 79 63 57 SW6 30.11S  
*CASTROVILLE SUNNY 83 61 46 SE5 30.08F  
HONDO SUNNY 80 62 54 S3 30.09S  
*UVALDE SUNNY 80 65 60 S5 30.08R  
DEL RIO SUNNY 82 65 56 S12 30.04S  
LAUGHLIN AFB SUNNY 82 65 57 S10 30.05S  
CARRIZO SPRGS SUNNY 82 64 54 S5 30.04S  
*EAGLE PASS SUNNY 82 66 57 S5 30.05S  

 
 
TXZ173-191>194-202-209-217>225-228-291700-  
CENTRAL AND SOUTH CENTRAL TEXAS  
 
CITY SKY/WX TMP DP RH WIND PRES REMARKS
 
GEORGETOWN NOT AVBL  
AUSTIN/BERGSTM MOSUNNY 82 65 56 S8 30.07R  
AUSTIN/MABRY SUNNY 85 65 51 S8 30.08S  
*AUSTIN/EXEC SUNNY 82 66 57 CALM 30.08S  
*LAGO VISTA SUNNY 82 62 51 S7 30.10S  
SAN MARCOS SUNNY 82 66 57 S6 30.08S  
NEW BRAUNFELS SUNNY 84 66 54 VRB3 30.06R  
RANDOLPH AFB SUNNY 82 65 55 CALM 30.07S  
PT SAN ANTONIO SUNNY 82 64 54 VRB3 30.06S  
SAN ANTONIO SUNNY 82 65 56 S9 30.08R  
STINSON FIELD SUNNY 83 64 52 VRB3 30.05R  
*PLEASANTON SUNNY 83 63 49 S5 30.07R  
*LA GRANGE SUNNY 85 68 57 CALM 30.05R  
*GIDDINGS SUNNY 83 65 55 CALM 30.10S  
*GONZALES MOSUNNY 85 68 57 CALM 30.06R  

 
 
TXZ163>164-176>182-195>201-210>213-226-227-235-291700-  
SOUTHEAST TEXAS  
 
CITY SKY/WX TMP DP RH WIND PRES REMARKS
 
COLLEGE STN SUNNY 83 68 60 MISG 30.06S  
*BRYAN SUNNY 84 67 55 S7 30.07F  
*CALDWELL SUNNY 82 64 54 CALM 30.09S  
*CROCKETT SUNNY 84 66 54 S7 30.09S  
*BRENHAM MOSUNNY 84 69 60 S6 30.07S  
HUNTSVILLE MOSUNNY 85 67 54 VRB3 30.07S  
CONROE MOSUNNY 83 63 50 VRB5 30.07S  
HOUSTON BUSH MOSUNNY 84 64 50 SE6 30.07R  
HOUSTON HOBBY MOSUNNY 84 63 49 VRB3 30.06R  
*HOUSTON SW AP MOSUNNY N/A N/A N/A CALM 30.07S  
PEARLAND MOSUNNY 85 63 47 S3 30.07R  
HOUSTON HOOKS MOSUNNY 85 67 54 SW7 30.07R  
ELLINGTON FLD PTSUNNY 84 63 48 CALM 30.08S  
SUGAR LAND MOSUNNY 84 66 54 CALM 30.06S  
*HOUSTON EXEC MOSUNNY 82 66 57 CALM 30.08S  
*CLEVELAND MUN MOSUNNY 85 68 56 CALM 30.08R  
*WHARTON SUNNY 84 65 53 E3 30.06S  
*COLUMBUS FAIR 85 66 52 S6 30.05S  
*EAGLE LAKE MOSUNNY 83 66 55 CALM 30.06S  

 
 
TXZ214>216-236>238-291700-  
THE UPPER TEXAS COAST  
 
CITY SKY/WX TMP DP RH WIND PRES REMARKS
 
*ORANGE MOSUNNY 83 62 49 CALM 30.09R  
PORT ARTHUR MOSUNNY 83 65 54 SW6 30.07R  
GALVESTON SUNNY 86 63 45 CALM 30.07R  
ANGLETON SUNNY 86 66 51 N3 30.05S  
*BAY CITY SUNNY 85 66 54 S5 30.05S  
PALACIOS PTSUNNY 85 68 56 CALM 30.05R  

 
 
TXZ229>234-239>247-291700-  
TEXAS COASTAL BEND AND RIO GRANDE PLAINS  
 
CITY SKY/WX TMP DP RH WIND PRES REMARKS
 
VICTORIA SUNNY 85 66 53 N3 30.05S  
*BEEVILLE SUNNY 84 67 56 SE3 30.05R  
ROCKPORT SUNNY 86 66 51 NW5 30.03S  
*PORT ARANSAS SUNNY 85 66 52 CALM 30.03R  
*PORT LAVACA SUNNY 83 68 60 SE3 30.05R  
*INGLESIDE PTSUNNY 88 65 46 SE10 30.03R HX 90  
CORPUS CHRISTI MOSUNNY 85 63 47 VRB5 30.03R  
CORPUS NAS MOSUNNY 86 68 54 N5 30.03R  
*ROBSTOWN SUNNY 87 65 47 SE6 30.04R  
ALICE SUNNY 85 64 49 E8 30.03S  
KINGSVILLE NAS SUNNY 86 65 49 VRB5 30.03S  
COTULLA SUNNY 85 65 51 VRB5 30.05S  
*FAITH RANCH N/A 84 66 54 VRB7 30.05R  
LAREDO SUNNY 86 67 52 SE8 30.05R  

 
 
TXZ248>255-291700-  
DEEP SOUTH TEXAS  
 
CITY SKY/WX TMP DP RH WIND PRES REMARKS
 
BROWNSVILLE MOSUNNY 85 68 56 S5 30.02R  
PORT ISABEL MOSUNNY 88 67 49 NE8 30.02R HX 91  
*SOUTH PADRE SUNNY 84 68 58 NE6 30.03R  
HARLINGEN SUNNY 88 69 53 CALM 30.01S HX 92  
*HEBBRONVILLE NOT AVBL  
MCALLEN SUNNY 88 71 57 VRB6 30.02S HX 94  
*WESLACO SUNNY 85 69 59 S5 30.01F  
FALFURRIAS SUNNY 86 65 50 E3 30.02F  
EDINBURG SUNNY 87 65 48 S5 30.02F  
*ZAPATA SUNNY 87 66 49 SE9 30.02S  

 
 
TXZ213>215-236>238-242>244-246-247-251-254-255-291700-  
CMAN STATIONS  
 
STATION/POSITION TIME TEMP WIND PRES WAVE
 
AIR SEA DIR/SP/G HT/PER  
(UTC) (F) (DEG/KT/KT) (MB) (FT/S)  

 
 
GMZ080-GMZ150>470-291700-  
OFFSHORE BUOY REPORTS  
 
STATION/POSITION TIME TEMP WIND PRES WAVE
 
AIR SEA DIR/SP/G HT/PER  
(UTC) (F) (DEG/KT/KT) (MB) (FT/S)  

 
 
CLICK HERE TO GO TO PREVIOUS BULLETINS.

The Nexlab TX Page Main Text Page